Location: Cortada Guamacho
(10.5667°N, 67.0833°W)
Time: 22:14:55
(UTC+00:00)

SWIFT - Pass Details

Date: 06 July 2022
Orbit: 539 x 553 km, 20.6° (Epoch: 07 August)

Event Time Altitude Azimuth Distance (km) Brightness Sun altitude
Exits shadow 09:39:12 10° 240° (WSW) 1,778 4.2 -8.1°
Maximum altitude 09:41:41 15° 202° (SSW) 1,464 4.1 -7.5°
Drops below altitude 10° 09:44:11 10° 165° (SSE) 1,780 4.8 -7.0°
Sets 09:47:13 0° 142° (SE) 2,671 6.0 -6.3°
